KC1NKL-13 Weather Reports


time (UTC)temp
C
wind
direction
speed
KPH
gust
KPH
rain 1hr
cm
rain 24hr
cm
rain mn
cm
humidity
%
barometer
mb
20260505011516 10 113 1.6 3.2 0.00 0.00 0.00 77 1007.3
20260505010516 10 113 1.6 3.2 0.00 0.00 0.00 75 1007.1
20260505005516 10 113 1.6 3.2 0.00 0.00 0.00 72 1007.0
20260505004536 11 135 3.2 6.4 0.00 0.00 0.00 71 1007.0
20260505003516 11 113 3.2 4.8 0.00 0.00 0.00 69 1006.7
20260505002516 12 113 4.8 8.0 0.00 0.00 0.00 67 1006.4
20260505001516 12 113 4.8 6.4 0.00 0.00 0.00 65 1006.2
20260505000517 13 113 4.8 6.4 0.00 0.00 0.00 64 1006.2
20260504235516 13 113 4.8 6.4 0.00 0.00 0.00 63 1006.2
20260504234516 13 113 3.2 6.4 0.00 0.00 0.00 63 1006.2
20260504233516 14 113 3.2 6.4 0.00 0.00 0.00 63 1006.0
20260504232516 15 135 3.2 6.4 0.00 0.00 0.00 62 1005.9
20260504231516 15 135 4.8 9.7 0.00 0.00 0.00 61 1005.7
20260504230535 16 113 3.2 6.4 0.00 0.00 0.00 60 1005.6
20260504225515 16 135 3.2 6.4 0.00 0.00 0.00 57 1005.4
20260504224556 17 158 3.2 4.8 0.00 0.00 0.00 55 1005.3
20260504223515 17 135 4.8 8.0 0.00 0.00 0.00 53 1005.2
20260504222515 17 135 1.6 3.2 0.00 0.00 0.00 53 1005.3
20260504221536 17 135 1.6 3.2 0.00 0.00 0.00 53 1005.2
20260504220536 17 135 1.6 4.8 0.00 0.00 0.00 54 1005.2
20260504215515 17 270 1.6 4.8 0.00 0.00 0.00 50 1005.3
20260504214516 18 248 4.8 8.0 0.00 0.00 0.00 49 1005.2
20260504213519 17 270 3.2 6.4 0.00 0.00 0.00 50 1005.2
20260504212517 17 248 3.2 6.4 0.00 0.00 0.00 52 1005.1
20260504211517 17 248 3.2 6.4 0.00 0.00 0.00 50 1005.2
20260504210517 17 248 4.8 9.7 0.00 0.00 0.00 50 1005.3
20260504205518 18 248 6.4 17.7 0.00 0.00 0.00 48 1005.3
20260504204517 18 248 4.8 11.3 0.00 0.00 0.00 49 1005.3
20260504203517 18 248 8.0 17.7 0.00 0.00 0.00 50 1005.2
20260504202517 18 248 6.4 11.3 0.00 0.00 0.00 50 1005.2
20260504201519 17 248 8.0 16.1 0.00 0.00 0.00 51 1005.2
20260504200537 17 270 4.8 16.1 0.00 0.00 0.00 54 1005.3
20260504195540 16 270 1.6 4.8 0.00 0.00 0.00 61 1005.3
20260504194518 16 225 1.6 4.8 0.00 0.00 0.00 63 1005.5
20260504193517 15 338 3.2 8.0 0.00 0.00 0.00 64 1005.4
20260504192520 15 270 3.2 11.3 0.00 0.00 0.00 64 1005.5
20260504191537 15 248 3.2 16.1 0.00 0.00 0.00 64 1005.6
20260504190517 15 270 1.6 8.0 0.00 0.00 0.00 67 1005.7
20260504185517 13 270 1.6 6.4 0.00 0.00 0.00 69 1005.9
20260504184517 13 315 3.2 6.4 0.00 0.00 0.00 68 1005.9
20260504183537 14 293 1.6 3.2 0.00 0.00 0.00 69 1005.8
20260504182517 13 270 1.6 3.2 0.00 0.03 0.00 69 1005.9
20260504181517 14 293 1.6 4.8 0.00 0.03 0.00 68 1006.0
20260504180517 13 270 1.6 4.8 0.00 0.03 0.00 66 1006.0
20260504175517 13 225 3.2 9.7 0.00 0.03 0.00 66 1005.9
20260504174517 14 225 3.2 4.8 0.00 0.03 0.00 63 1006.1
20260504173517 15 203 4.8 9.7 0.00 0.03 0.00 55 1005.8
20260504172537 15 225 4.8 11.3 0.00 0.03 0.00 52 1005.5
20260504171517 15 203 6.4 9.7 0.00 0.03 0.00 52 1005.3
20260504170517 16 158 6.4 17.7 0.00 0.03 0.00 50 1005.1
20260504150519 14 248 8.0 24.1 0.00 0.18 0.00 59 1006.3
20260504140516 13 248 4.8 9.7 0.00 0.30 0.00 61 1007.2
20260504130516 10 225 4.8 9.7 0.00 0.33 0.00 64 1007.9
20260504110516 3 180 1.6 3.2 0.00 0.48 0.00 76 1008.2
20260504100516 3 180 1.6 3.2 0.00 0.53 0.00 73 1008.1
20260504081518 2 248 1.6 4.8 0.00 0.58 0.00 77 1007.8
20260504080517 2 248 1.6 4.8 0.00 0.58 0.00 77 1007.8
20260504050517 3 293 1.6 3.2 0.00 0.58 0.00 72 1007.2
20260504045517 3 293 1.6 3.2 0.00 0.58 0.00 73 1007.2
20260504044522 3 293 3.2 4.8 0.00 0.58 0.00 74 1007.2
20260504043518 3 270 3.2 4.8 0.00 0.58 0.00 74 1007.2
20260504042517 3 270 3.2 4.8 0.00 0.58 0.00 73 1007.2
20260504041536 3 270 1.6 4.8 0.00 0.58 0.00 71 1007.2
20260504040517 4 270 1.6 3.2 0.00 0.58 0.00 69 1007.1
20260504035516 4 270 3.2 4.8 0.00 0.58 0.58 68 1006.9
20260504034516 4 270 3.2 6.4 0.00 0.58 0.58 69 1006.8
20260504033537 4 293 1.6 4.8 0.00 0.58 0.58 69 1006.8
20260504032516 4 270 1.6 3.2 0.00 0.58 0.58 69 1006.8
20260504031516 5 270 3.2 4.8 0.00 0.58 0.58 68 1006.8
20260504030536 5 270 3.2 6.4 0.00 0.58 0.58 67 1006.7
20260504025516 5 270 3.2 6.4 0.00 0.58 0.58 66 1006.6
20260504024516 5 270 4.8 6.4 0.00 0.58 0.58 65 1006.5
20260504023516 5 270 3.2 6.4 0.00 0.58 0.58 65 1006.4
20260504022536 6 270 3.2 6.4 0.00 0.58 0.58 64 1006.4
20260504021536 6 270 3.2 6.4 0.00 0.58 0.58 63 1006.3
20260504020516 6 270 3.2 4.8 0.00 0.58 0.58 62 1006.3
20260504015536 6 270 3.2 6.4 0.00 0.58 0.58 60 1006.2
20260504014536 6 293 3.2 8.0 0.00 0.58 0.58 60 1006.2
20260504013516 6 248 3.2 6.4 0.00 0.58 0.58 61 1006.1
20260504012516 7 270 3.2 14.5 0.00 0.58 0.58 60 1006.0